Location: Austin
(30.3000°N, 97.7500°W)
Time: 23:54:42
(UTC-05:00)

SL-08 R/B - Pass Details

Date: 06 May 2026
Orbit: 667 x 728 km, 98.5° (Epoch: 13 May)

Event Time Altitude Azimuth Distance (km) Brightness Sun altitude
Rises 21:40:10 0° 16° (NNE) 3,128 6.9 -17.8°
Reaches altitude 10° 21:42:28 10° 19° (NNE) 2,197 6.0 -18.2°
Maximum altitude 21:47:15 66° 101° (E) 769 3.2 -19.1°
Enters shadow 21:50:07 24° 179° (S) 1,444 4.6 -19.6°
